Location: Brno
(49.2000°N, 16.6330°E)
Time: 03:16:19
(UTC+01:00)

ISS - Visible Passes

Search period start: 20 December 2014 00:00
Search period end: 30 December 2014 00:00
Orbit: 404 x 415 km, 51.6° (Epoch: 19 December)

Date Brightness Start Highest point End Pass type
(mag) Time Alt. Az. Time Alt. Az. Time Alt. Az.
20 Dec -3.0 16:56:55 10° WNW 17:00:09 53° N 17:02:44 15° ENE visible
20 Dec -1.6 18:33:36 10° WNW 18:35:29 31° WNW 18:35:29 31° WNW visible
21 Dec -3.4 17:42:49 10° WNW 17:46:07 73° NNE 17:46:54 48° E visible
21 Dec 0.3 19:19:35 10° W 19:19:40 11° W 19:19:40 11° W visible
22 Dec -3.2 16:51:58 10° WNW 16:55:15 60° N 16:58:21 11° E visible
22 Dec -2.0 18:28:37 10° WNW 18:31:07 40° WSW 18:31:07 40° WSW visible
23 Dec -3.2 17:37:42 10° WNW 17:40:59 71° SSW 17:42:40 26° SE visible
23 Dec 0.1 19:15:02 10° W 19:15:26 12° WSW 19:15:26 12° WSW visible
24 Dec -3.4 16:46:45 10° WNW 16:50:04 83° NNE 16:53:21 10° ESE visible
24 Dec -1.3 18:23:38 10° W 18:26:23 25° SW 18:27:07 23° SSW visible
25 Dec -1.9 17:32:27 10° W 17:35:32 38° SSW 17:38:36 10° SE visible
26 Dec -2.7 16:41:20 10° WNW 16:44:35 59° SSW 16:47:49 10° SE visible
26 Dec -0.2 18:19:08 10° WSW 18:20:35 12° SW 18:22:02 10° SSW visible
27 Dec -0.5 17:27:16 10° W 17:29:44 20° SW 17:32:12 10° S visible
28 Dec -1.2 16:35:49 10° W 16:38:46 31° SW 16:41:42 10° SSE visible
